Regional Weather Roundup
Issued by NWS

Home | Current Version | Previous Version | Text Only | Print | Product List | Glossary On
Versions: 1 2 3 4 5 6 7 8 9 10 11 12 13 14 15 16 17 18 19 20 21 22 23 24 25 26 27 28 29 30 31 32 33 34 35 36 37 38 39 40 41 42 43 44 45 46 47 48 49 50
000
ASUS43 KLSX 260707
RWRMO

WEATHER SUMMARY FOR MISSOURI
NATIONAL WEATHER SERVICE SPRINGFIELD MO
200 AM CDT SAT JUL 26 2014

NOTE: "FAIR" INDICATES FEW OR NO CLOUDS BELOW 12,000 FEET WITH NO
       SIGNIFICANT WEATHER AND/OR OBSTRUCTIONS TO VISIBILITY.
       CURRENT SKY AND/OR WEATHER CONDITIONS ARE NOT AVAILABLE FOR
       CHILLICOTHE AND FARMINGTON.

MOZ001>031-035>038-043-044-053-054-260800-
...NORTHERN AND WESTERN MISSOURI...

CITY           SKY/WX    TMP DP  RH WIND       PRES   REMARKS
KANSAS CTY INT CLEAR     81  73  76 SW16G24   29.80F
KANSAS C DTWN  CLEAR     84  72  67 SW15G22   29.79F
LEE`S SUMMIT   CLEAR     81  72  74 SW13      29.83S
ST JOSEPH      CLEAR     80  74  81 S7        29.78S
CHILLICOTHE      N/A     80  73  79 S5        29.80F
KIRKSVILLE     CLEAR     73  70  90 S8        29.82F

$$
MOZ066>068-077>081-088>096-101>105-260800-
...SOUTHWEST MISSOURI...

CITY           SKY/WX    TMP DP  RH WIND       PRES   REMARKS
SPRINGFIELD    PTCLDY    75  70  84 S10       29.92F
JOPLIN         CLEAR     79  71  76 S18       29.89F

$$
MOZ032>034-039>042-045>050-055>058-069>072-260800-
...CENTRAL MISSOURI...

CITY           SKY/WX    TMP DP  RH WIND       PRES   REMARKS
COLUMBIA       CLEAR     76  71  85 S8        29.86F
JEFFERSON CITY CLEAR     77  70  79 SE6       29.85F
ROLLA          CLEAR     73  68  84 S16G26    29.89F
SEDALIA        CLEAR     81  70  69 SW16      29.85S
WHITEMAN AFB   CLEAR     80  65  60 SW16      29.83F
OSAGE BEACH    CLEAR     75  70  83 S7        29.88F

$$
MOZ051-052-059>065-260800-
...EAST CENTRAL MISSOURI...

CITY           SKY/WX    TMP DP  RH WIND       PRES   REMARKS
ST LOUIS INTL  PTCLDY    74  65  73 SE6       29.90S
SPIRIT OF STL  CLEAR     72  66  81 CALM      29.88S
ST CHARLES     CLOUDY    69  66  90 E7        29.88F

$$
MOZ072>076-082>087-097>100-106>115-260800-
...SOUTH CENTRAL AND SOUTHEAST MISSOURI...

CITY           SKY/WX    TMP DP  RH WIND       PRES   REMARKS
CAPE GIRARDEAU CLEAR     67  64  90 S6        29.96S
FARMINGTON     CLEAR     70  64  83 S6        29.97S
POPLAR BLUFF   CLEAR     69  62  78 CALM      29.94S
WEST PLAINS    CLEAR     72  68  87 SW5       29.98S

$$



USA.gov is the U.S. government's official web portal to all federal, state and local government web resources and services.